Middle River, MD

3:05 AM EST on January 23, 2017 (GMT -0500)
Martin State

Weather History for KMTN - January, 2014

Change the Weather History Date:

Thursday, January 9, 2014

  Actual Average Record
Temperature  
Mean Temperature 30 °F -  
Max Temperature 35 °F 40 °F 64 °F (2003)
Min Temperature 26 °F 27 °F 17 °F (2017)
Degree Days  
Heating Degree Days 34    
Moisture  
Dew Point 22 °F    
Average Humidity 71    
Maximum Humidity 86    
Minimum Humidity 48    
Precipitation  
Precipitation 0.00 in - - ()
Sea Level Pressure  
Sea Level Pressure 30.59 in    
Wind  
Wind Speed 1 mph (ESE)    
Max Wind Speed 9 mph    
Max Gust Speed -    
Visibility 10 miles    
Events      
Averages and records for this station are not official NWS values.
T = Trace of Precipitation, MM = Missing Value Source: NWS Daily Summary

Daily Weather History Graph

Daily Weather History Graph

Search for Another Location

Airport or City:

Trip Planner

Search our weather history database for the weather conditions in past years. The results will help you decide how hot, cold, wet, or windy it might be!

Date:

Astronomy

Jan. 09, 2014 Rise Set
Actual Time 7:25 AM EST 5:00 PM EST
Civil Twilight 6:55 AM EST 5:30 PM EST
Nautical Twilight 6:22 AM EST 6:03 PM EST
Astronomical Twilight 5:50 AM EST 6:35 PM EST
Moon 12:25 PM EST (1/9) 1:31 AM EST (1/9)
Length of Visible Light 10h 34m
Length of Day
9h 35m
Waxing Gibbous, 66% of the Moon is Illuminated
Jan 9
Waxing Gibbous
Jan 15
Full
Jan 24
Last Quarter
Jan 30
New
Feb 6
First Quarter

Hourly Weather History & Observations

Time (EST) Temp. Windchill Dew Point Humidity Pressure Visibility Wind Dir Wind Speed Gust Speed Precip Events Conditions
12:15 AM 30.2 °F 26.7 °F 23.0 °F 75% 30.53 in 10.0 mi SE 3.5 mph - N/A   Scattered Clouds
12:33 AM 30.2 °F 26.7 °F 23.0 °F 75% 30.53 in 10.0 mi SE 3.5 mph - N/A   Mostly Cloudy
12:54 AM 30.2 °F - 23.0 °F 75% 30.53 in 10.0 mi Calm Calm - N/A   Scattered Clouds
1:15 AM 30.2 °F - 23.0 °F 75% 30.53 in 10.0 mi Calm Calm - N/A   Clear
1:33 AM 30.2 °F - 23.0 °F 75% 30.53 in 10.0 mi Calm Calm - N/A   Clear
1:54 AM 30.2 °F - 23.0 °F 75% 30.54 in 10.0 mi Calm Calm - N/A   Clear
2:15 AM 30.2 °F - 23.0 °F 75% 30.54 in 10.0 mi Calm Calm - N/A   Clear
2:33 AM 30.2 °F - 23.0 °F 75% 30.54 in 10.0 mi Calm Calm - N/A   Scattered Clouds
2:54 AM 28.4 °F - 23.0 °F 80% 30.55 in 10.0 mi Calm Calm - N/A   Scattered Clouds
3:15 AM 30.2 °F - 23.0 °F 75% 30.55 in 10.0 mi Calm Calm - N/A   Clear
3:33 AM 28.4 °F - 23.0 °F 80% 30.55 in 10.0 mi Calm Calm - N/A   Clear
3:54 AM 28.4 °F - 23.0 °F 80% 30.56 in 10.0 mi Calm Calm - N/A   Clear
4:15 AM 28.4 °F - 23.0 °F 80% 30.56 in 10.0 mi Calm Calm - N/A   Clear
4:33 AM 28.4 °F - 23.0 °F 80% 30.57 in 10.0 mi Calm Calm - N/A   Clear
4:54 AM 28.4 °F - 23.0 °F 80% 30.57 in 10.0 mi Calm Calm - N/A   Clear
5:15 AM 28.4 °F - 23.0 °F 80% 30.57 in 10.0 mi Calm Calm - N/A   Clear
5:33 AM 28.4 °F - 23.0 °F 80% 30.57 in 10.0 mi Calm Calm - N/A   Clear
5:45 AM 26.6 °F - 21.2 °F 80% 30.59 in 10.0 mi Calm Calm - N/A   Clear
6:45 AM 26.6 °F - 21.2 °F 80% 30.60 in 10.0 mi Calm Calm - N/A   Mostly Cloudy
7:45 AM 28.4 °F - 17.6 °F 64% 30.65 in 10.0 mi Calm Calm - N/A   Mostly Cloudy
8:45 AM 28.4 °F - 17.6 °F 64% 30.65 in 10.0 mi Calm Calm - N/A   Mostly Cloudy
9:45 AM 33.8 °F - 17.6 °F 52% 30.68 in 10.0 mi Calm Calm - N/A   Mostly Cloudy
10:45 AM 35.6 °F 30.7 °F 17.6 °F 48% 30.68 in 10.0 mi North 5.8 mph - N/A   Mostly Cloudy
11:50 AM 35.6 °F - 19.4 °F 52% 30.65 in 10.0 mi Calm Calm - N/A   Mostly Cloudy
12:45 PM 35.6 °F - 19.4 °F 52% 30.62 in 10.0 mi Calm Calm - N/A   Scattered Clouds
1:30 PM 35.6 °F 29.9 °F 21.2 °F 56% 30.62 in 10.0 mi SE 6.9 mph - N/A   Clear
1:45 PM 35.6 °F 28.6 °F 21.2 °F 56% 30.61 in 10.0 mi ESE 9.2 mph - N/A   Partly Cloudy
2:50 PM 35.6 °F - 21.2 °F 56% 30.62 in 10.0 mi Calm Calm - N/A   Partly Cloudy
3:55 PM 35.6 °F - 19.4 °F 52% 30.63 in 10.0 mi Calm Calm - N/A   Partly Cloudy
4:50 PM 33.8 °F - 21.2 °F 60% 30.63 in 10.0 mi Calm Calm - N/A   Scattered Clouds
6:45 PM 28.4 °F - 21.2 °F 74% 30.62 in 10.0 mi Calm Calm - N/A   Scattered Clouds
7:50 PM 30.2 °F - 21.2 °F 69% 30.62 in 10.0 mi Calm Calm - N/A   Scattered Clouds
8:50 PM 28.4 °F - 21.2 °F 74% 30.64 in 10.0 mi Calm Calm - N/A   Mostly Cloudy
9:45 PM 30.2 °F - 23.0 °F 75% 30.63 in 10.0 mi Calm Calm - N/A   Mostly Cloudy
10:15 PM 32.0 °F - 23.0 °F 69% 30.63 in 10.0 mi Calm Calm - N/A   Clear
10:36 PM 32.0 °F - 23.0 °F 69% 30.62 in 10.0 mi Calm Calm - N/A   Clear
10:57 PM 30.2 °F - 23.0 °F 75% 30.62 in 10.0 mi Calm Calm - N/A   Clear
11:15 PM 30.2 °F - 26.6 °F 86% 30.61 in 10.0 mi Calm Calm - N/A   Clear
11:36 PM 30.2 °F - 26.6 °F 86% 30.59 in 10.0 mi Calm Calm - N/A   Clear
11:57 PM 30.2 °F - 26.6 °F 86% 30.58 in 10.0 mi Calm Calm - N/A   Clear